Home > Weather > Oakland > Past weeks

Flag for USA Past Weather in Oakland, California, USA — Yesterday and Last 2 Weeks

Now
58 °F

Overcast.


Feels Like: 56 °F
Forecast: 55 / 68 °F
Wind: 8 mph from South

Location: Metro Oakland International Airport

Current Time: May 26, 2016 at 7:40:45 AM

Latest Report: May 26, 2016 at 6:53 AM


Visibility: 10 mi

Pressure: 30.09 "Hg

Humidity: 72%

Dew Point: 49 °F

Location of OaklandLocation

Past Weather in Oakland — Graph

°F

Oakland Temperature Yesterday

Maximum temperature yesterday: 65 °F (at 2:53 PM)
Minimum temperature yesterday: 57 °F (at 5:53 AM)
Average temperature yesterday: 60 °F

High & Low Weather Summary for the Past Weeks

 TemperatureHumidityPressure
High86 °F (May 17, 1:53 PM)84% (May 16, 5:53 AM)30.14 "Hg (May 16, 5:53 AM)
Low53 °F (May 11, 5:53 AM)23% (May 17, 1:53 PM)29.75 "Hg (May 20, 1:53 AM)
Average61 °F67%29.98 "Hg
* Reported May 11 5:53 AM — May 26 5:53 AM, Oakland, Weather by CustomWeather, © 2016

Note: Actual official high and low records may vary slightly from our data, if they occured in-between our weather recording intervals... More about our weather records

Advertising

Oakland Weather History for the Previous 24 Hours

Scroll right to see more
 ConditionsComfort  
Time TempWeatherWind HumidityBarometerVisibility
5:53 AM
Thu, May 26
57 °FOvercast.7 mph74%30.08 "Hg10 mi
4:53 AM57 °FOvercast.9 mph74%30.08 "Hg10 mi
3:53 AM57 °FOvercast.10 mph78%30.09 "Hg10 mi
2:53 AM57 °FOvercast.14 mph81%30.10 "Hg10 mi
1:53 AM57 °FOvercast.13 mph78%30.11 "Hg10 mi
12:53 AM57 °FOvercast.14 mph78%30.13 "Hg10 mi
11:53 PM
Wed, May 25
57 °FOvercast.15 mph78%30.13 "Hg10 mi
10:53 PM58 °FOvercast.15 mph75%30.14 "Hg10 mi
9:53 PM58 °FMostly cloudy.15 mph75%30.13 "Hg10 mi
8:53 PM58 °FBroken clouds.20 mph72%30.12 "Hg10 mi
7:53 PM60 °FBroken clouds.18 mph67%30.11 "Hg10 mi
6:53 PM61 °FPartly sunny.15 mph67%30.11 "Hg10 mi
5:53 PM61 °FPartly sunny.17 mph70%30.11 "Hg10 mi
4:53 PM63 °FOvercast.21 mph65%30.11 "Hg10 mi
3:53 PM65 °FPartly sunny.17 mph61%30.11 "Hg10 mi
2:53 PM65 °FPassing clouds.16 mph59%30.11 "Hg10 mi
1:53 PM63 °FOvercast.13 mph63%30.13 "Hg10 mi
12:53 PM62 °FPartly sunny.14 mph67%30.14 "Hg10 mi
11:53 AM62 °FMostly cloudy.14 mph70%30.14 "Hg10 mi
10:53 AM60 °FOvercast.7 mph72%30.13 "Hg10 mi
9:53 AM59 °FOvercast.8 mph72%30.12 "Hg10 mi
8:53 AM58 °FOvercast.8 mph75%30.11 "Hg10 mi
7:53 AM57 °FDrizzle. Overcast.8 mph81%30.10 "Hg10 mi
Weather by CustomWeather, © 2016

See weather overviewHow to use our weather pages